Regional Weather Roundup
Issued by NWS

Home | Current Version | Previous Version | Text Only | Print | Product List | Glossary Off
Versions: 1 2 3 4 5 6 7 8 9 10 11 12 13 14 15 16 17 18 19 20 21 22 23 24 25 26 27 28 29 30 31 32 33 34 35 36 37 38 39 40 41 42 43 44 45 46 47 48 49 50

000
ASUS43 KOAX 240602
RWRNE

WEATHER ROUNDUP FOR NEBRASKA
NATIONAL WEATHER SERVICE OMAHA NE
1200 AM CST MON NOV 24 2014

NOTES: SATELLITE DATA IS BEING USED TO AUGMENT CLOUD COVER ABOVE
       12000 FEET.
       "FAIR" INDICATES FEW OR NO CLOUDS BELOW 12,000 FEET WITH NO
       SIGNIFICANT WEATHER AND/OR OBSTRUCTIONS TO VISIBILITY.

  * THESE STATIONS DO NOT REPORT WEATHER SUCH AS RAIN...SNOW OR FOG.

NEZ001>004-019>022-054>056-240700-
NEBRASKA PANHANDLE

CITY           SKY/WX    TMP DP  RH WIND       PRES   REMARKS
SCOTTSBLUFF    CLEAR     28  19  69 W16       29.81F WCI  16
6HR MIN TEMP:  26; 6HR MAX TEMP:  36;

ALLIANCE       CLOUDY    24  18  77 W14       29.76F WCI  12
6HR MIN TEMP:  24; 6HR MAX TEMP:  35;

CHADRON        CLOUDY    45  21  38 W14       29.78F
6HR MIN TEMP:  28; 6HR MAX TEMP:  45;

SIDNEY         CLEAR     26  18  71 NW16      29.80F WCI  14
6HR MIN TEMP:  26; 6HR MAX TEMP:  35;

$$

NEZ057>060-069>072-079>082-240700-
SOUTHWEST NEBRASKA

CITY           SKY/WX    TMP DP  RH WIND       PRES   REMARKS
NORTH PLATTE   MOCLDY    31  20  63 W14       29.71F WCI  21
6HR MIN TEMP:  27; 6HR MAX TEMP:  40;

IMPERIAL       CLEAR     30  16  56 W17       29.77F WCI  18
6HR MIN TEMP:  29; 6HR MAX TEMP:  38;

MCCOOK         PTCLDY    31  16  54 W16       29.75F WCI  20
6HR MIN TEMP:  31; 6HR MAX TEMP:  43;

$$

NEZ005>010-023>029-035>040-094-240700-
NORTH CENTRAL NEBRASKA

CITY           SKY/WX    TMP DP  RH WIND       PRES   REMARKS
VALENTINE      CLOUDY    31  21  66 NW21G26   29.67S WCI  18
6HR MIN TEMP:  31; 6HR MAX TEMP:  37; 6HR PCP: TRACE;

AINSWORTH      MOCLDY    31  20  66 NW24G31   29.64F WCI  17
BROKEN BOW     CLOUDY    34  25  69 N12       29.65S WCI  25
6HR MIN TEMP:  34; 6HR MAX TEMP:  42;

ORD            PTCLDY    33  19  56 NW25G35   29.63F WCI  20
6HR MIN TEMP:  33; 6HR MAX TEMP:  41;

$$

NEZ041-046>049-061>064-073>077-083>087-240700-
SOUTH CENTRAL NEBRASKA

CITY           SKY/WX    TMP DP  RH WIND       PRES   REMARKS
AURORA         CLEAR     33  22  63 NW25G35   29.63S WCI  20
HASTINGS       CLOUDY    36  26  67 NW13      29.63F WCI  27
6HR MIN TEMP:  34; 6HR MAX TEMP:  41;

HOLDREGE       CLEAR     33  22  61 W16G22    29.67F WCI  23
KEARNEY *      CLOUDY    34  19  55 W16       29.66F WCI  23
YORK           CLEAR     32  23  69 NW25G39   29.60F WCI  19
$$

NEZ011>018-030>034-042>045-240700-
NORTHEAST NEBRASKA

CITY           SKY/WX    TMP DP  RH WIND       PRES   REMARKS
NORFOLK        CLOUDY    31  21  66 NW24G30   29.57S WCI  17
6HR MIN TEMP:  31; 6HR MAX TEMP:  42;

ALBION         PTCLDY    29  21  71 NW15G22   29.60S WCI  18
BLAIR          CLOUDY    34  23  65 NW21G29   29.52F WCI  22
COLUMBUS *     CLOUDY    34  21  60 NW16G23   29.59F WCI  23
TEKAMAH        MOCLDY    32  21  64 NW16G26   29.54S WCI  21
6HR MIN TEMP:  32; 6HR MAX TEMP:  44;

WAYNE          CLOUDY    30  21  68 NW22G31   29.56F WCI  17
$$

NEZ050>053-065>068-078-088>093-240700-
SOUTHEAST NEBRASKA

CITY           SKY/WX    TMP DP  RH WIND       PRES   REMARKS
LINCOLN        CLOUDY    36  22  56 NW20G28   29.59S WCI  25
6HR MIN TEMP:  36; 6HR MAX TEMP:  44;

OMAHA EPPLEY   CLOUDY    35  23  61 N28G37    29.54S WCI  22
6HR MIN TEMP:  34; 6HR MAX TEMP:  44;

BEATRICE       PTCLDY    35  24  64 NW25G33   29.58F WCI  22
FALLS CITY     MOCLDY    38  27  64 NW20G30   29.53R WCI  28
6HR MIN TEMP:  38; 6HR MAX TEMP:  43; 6HR PCP: TRACE;

NEBRASKA CITY  CLOUDY    34  21  58 NW26G37   29.53S WCI  21
$$

NEZ044-045-051>053-067-240700-
OMAHA AREA

CITY           SKY/WX    TMP DP  RH WIND       PRES   REMARKS
OMAHA EPPLEY   CLOUDY    35  23  61 N28G37    29.54S WCI  22
6HR MIN TEMP:  34; 6HR MAX TEMP:  44;

BLAIR          CLOUDY    34  23  65 NW21G29   29.52F WCI  22
MILLARD        CLOUDY    33  22  63 NW18G24   29.54S WCI  22
OFFUTT AFB     CLOUDY    34  22  62 NW21G30   29.52F WCI  23
WAHOO          FAIR      32  20  61 NW23G30   29.56F WCI  19
$$


USA.gov is the U.S. government's official web portal to all federal, state and local government web resources and services.